Weather History for Kirksville, MO

Change the Weather History Date:

Saturday, August 3, 2013

  Actual Average Record
Temperature  
Mean Temperature 72 °F 76 °F  
Max Temperature 84 °F 86 °F 107 °F (1930)
Min Temperature 60 °F 65 °F 51 °F (1966)
Degree Days  
Heating Degree Days 0 0  
Month to date heating degree days 0 0  
Since 1 June heating degree days 44 17  
Since 1 July heating degree days 8 1  
Cooling Degree Days 7 10  
Month to date cooling degree days 25 31  
Year to date cooling degree days 557 598  
Since 1 June cooling degree days 489 536  
Growing Degree Days 22 (Base 50)    
Moisture  
Dew Point 62 °F    
Average Humidity 70    
Maximum Humidity 93    
Minimum Humidity 46    
Precipitation  
Precipitation 0.00 in 0.11 in 2.05 in (2001)
Month to date precipitation 0.00 0.34  
Year to date precipitation 29.89 23.93  
Sea Level Pressure  
Sea Level Pressure 30.07 in    
Wind  
Wind Speed 6 mph (NNE)    
Max Wind Speed 12 mph    
Max Gust Speed 15 mph    
Visibility 10 miles    
Events      
T = Trace of Precipitation, MM = Missing Value Source: NWS Daily Summary

Daily Weather History Graph

Daily Weather History Graph

Search for Another Location

Airport:

Trip Planner

Search our weather history database for the weather conditions in past years. The results will help you decide how hot, cold, wet, or windy it might be!

Date:

Astronomy

Aug. 03, 2013 Rise Set
Actual Time 6:10 AM CDT 8:21 PM CDT
Civil Twilight 5:40 AM CDT 8:51 PM CDT
Nautical Twilight 5:03 AM CDT 9:28 PM CDT
Astronomical Twilight 4:22 AM CDT 10:08 PM CDT
Moon 3:20 AM CDT (8/3) 6:04 PM CDT (8/3)
Length of Visible Light 15h 11m
Length of Day
14h 11m
Waning Crescent, 9% of the Moon is Illuminated
Aug 3
Waning Crescent
Aug 6
New
Aug 14
First Quarter
Aug 20
Full
Aug 28
Last Quarter

Hourly Weather History & Observations

Time (CDT) Temp. Heat Index Dew Point Humidity Pressure Visibility Wind Dir Wind Speed Gust Speed Precip Events Conditions
12:05 AM 68.0 °F - 68.0 °F 100% 30.00 in 5.0 mi North 4.6 mph - N/A   Mostly Cloudy
12:15 AM 69.8 °F - 68.0 °F 94% 30.00 in 7.0 mi North 3.5 mph - N/A   Overcast
12:31 AM 69.8 °F - 68.0 °F 94% 30.00 in 10.0 mi North 6.9 mph - N/A   Mostly Cloudy
12:44 AM 69.8 °F - 66.2 °F 88% 30.00 in 10.0 mi North 6.9 mph - N/A   Scattered Clouds
12:55 AM 68.0 °F - 64.9 °F 90% 30.00 in 10.0 mi North 6.9 mph - N/A   Partly Cloudy
1:55 AM 66.0 °F - 62.1 °F 87% 30.01 in 10.0 mi NNE 10.4 mph - N/A   Clear
2:55 AM 64.9 °F - 61.0 °F 87% 29.99 in 10.0 mi NNE 8.1 mph - N/A   Clear
3:55 AM 64.0 °F - 61.0 °F 90% 29.99 in 10.0 mi NNE 5.8 mph - N/A   Clear
4:55 AM 63.0 °F - 61.0 °F 93% 29.99 in 10.0 mi NE 8.1 mph - N/A   Clear
5:55 AM 62.1 °F - 60.1 °F 93% 30.04 in 10.0 mi Calm Calm - N/A   Mostly Cloudy
6:55 AM 63.0 °F - 61.0 °F 93% 30.05 in 10.0 mi North 4.6 mph - N/A   Partly Cloudy
7:55 AM 66.0 °F - 62.1 °F 87% 30.08 in 10.0 mi NE 6.9 mph - N/A   Overcast
8:55 AM 71.1 °F - 61.0 °F 70% 30.09 in 10.0 mi East 5.8 mph - N/A   Partly Cloudy
9:55 AM 75.0 °F - 63.0 °F 66% 30.09 in 10.0 mi NNE 9.2 mph - N/A   Partly Cloudy
10:55 AM 78.1 °F - 60.1 °F 54% 30.11 in 10.0 mi East 8.1 mph - N/A   Clear
11:55 AM 81.0 °F 81.7 °F 61.0 °F 50% 30.11 in 10.0 mi NE 8.1 mph - N/A   Clear
12:55 PM 82.0 °F 82.7 °F 61.0 °F 49% 30.12 in 10.0 mi NNE 5.8 mph - N/A   Clear
1:55 PM 82.9 °F 83.3 °F 61.0 °F 47% 30.11 in 10.0 mi NE 6.9 mph - N/A   Clear
2:55 PM 82.9 °F 83.2 °F 60.1 °F 46% 30.11 in 10.0 mi North 4.6 mph - N/A   Clear
3:55 PM 82.9 °F 83.2 °F 60.1 °F 46% 30.11 in 10.0 mi North 8.1 mph - N/A   Clear
4:55 PM 82.9 °F 82.8 °F 59.0 °F 44% 30.11 in 10.0 mi North 8.1 mph - N/A   Clear
5:55 PM 81.0 °F 81.3 °F 59.0 °F 47% 30.10 in 10.0 mi NE 8.1 mph - N/A   Clear
6:55 PM 79.0 °F - 60.1 °F 52% 30.11 in 10.0 mi NNE 9.2 mph - N/A   Clear
7:55 PM 73.0 °F - 61.0 °F 66% 30.11 in 10.0 mi NE 4.6 mph - N/A   Clear
8:55 PM 66.9 °F - 60.1 °F 79% 30.12 in 10.0 mi NNE 4.6 mph - N/A   Clear
9:55 PM 64.0 °F - 59.0 °F 84% 30.14 in 10.0 mi NE 4.6 mph - N/A   Clear
10:55 PM 63.0 °F - 57.0 °F 81% 30.17 in 10.0 mi NNE 4.6 mph - N/A   Clear
11:55 PM 63.0 °F - 57.0 °F 81% 30.18 in 10.0 mi NNE 4.6 mph - N/A   Clear